STARLINK-34058, 63818

Orbit data source: Space-Track

STARLINK-34058, 63818 is a payload satellite owned by SpaceX/Seattle (US) in LEO that was launched on Sun, 04 May 2025 UTC via an FALCON 9 launch vehicle from the Air Force Eastern Test Range (AFETR). Payload-class satellites include a variety of spacecraft equipped with specific instruments for various scientific and technological missions. These include communications satellites like Starlink; space stations such as the ISS; scientific satellites like the Hubble; Earth observation satellites from companies like Planet Labs, Umbra, and HawkEye 360; GPS; miniature CubeSats for education and research; and military/defense satellites.

Loading next visibility...
Identifier
63818, 2025-092Q
Orbit
LEO
Last TLE update
15 hours ago
Origin
Manufacturer
SpaceX/Seattle
Mission
Operational spacecraft
Bus & Motor
STARLINK V2MO, Unknown motor
Mass
575 kg wet, ~530 kg dry
Launch date (UTC)
2025-05-04 (1 week ago)
Launch vehicle
FALCON 9
Launch site
Air Force Eastern Test Range (AFETR)
Object type
Payload
Rocket body
Debris
Shape & HBR
Unknown
Radar Cross Section
Medium (>0.1 m² and <1 m²)

Expand to show TLE details & history

TLE from 15 hours ago
0 STARLINK-34058
1 63818U 25092Q   25132.91668981 -.00956544  00000-0 -34989-2 0  9995
2 63818  43.0007  80.1239 0001610 253.5640  71.8630 15.89548779  2558
Epoch: 2025-05-12T22:00Z
Definitive object data (Epoch: 2025-05-12T22:00:01.999Z)
Latitude
-22.92542°
Longitude
-147.61348°
Altitude
308.608 km
Speed
7.724 km/s
True Right ascension
03h 33m 16s
True Declination
-22° 47' 39"
Sunlit
Object was in daylight at TLE epoch
Visualization TLE readout
Latitude
-17.73451°
Longitude
-144.64744°
Altitude
310.622 km
Speed
7.723 km/s
Apparent Right ascension
06h 10m 46s
Apparent Declination
-36° 29' 22"
Sunlit
Object is in daylight
Visualization observer readout
Local Sidereal Time
21:32:58
Azimuth
101.679° ESE
Elevation
-50.659°
Doppler factor
1
Orbital elements
Apogee altitude
306.62 km
Perigee altitude
304.468 km
Semi-major axis
6,683.681 km
Eccentricity
0.000161
Inclination
43.0007°
RAAN
80.1239°
Arg. of periapsis
253.564°
True anomaly
71.88053°
Mean anomaly
71.863°
Eccentric anomaly
71.87177°
Mean motion
3.97209 °/min
BSTAR
-0.0034989
Orbital period
90.63 mins
Loading maneuver chart data...
Loading SW <> Apogee altitude chart data...
Loading historical data...
Loading historical data...
Loading historical data...
Loading historical data...
Loading historical data...
Loading historical data...
Loading historical data...

STARLINK-34058 Visibility forecast

Observer location: undefined°, undefined°

Span
Click to sort rows by Start time (UTC) header in descending order
Start Az.
Max El. time (UTC)
Max El. Az.
Max El.
End time (UTC)
End Az.
4 mins2025-05-14 00:02:16.808Z224.168° SW2025-05-14 00:04:16.808Z127.732° SE34.379°2025-05-14 00:06:16.808Z81.065° E
|